Location: Kershaw
(34.5481°N, 80.5823°W)
Time: 11:19:27
(UTC+00:00)

Tiros 1 despin weight - Pass Details

Date: 09 October 2022
Orbit: 590 x 637 km, 48.2° (Epoch: 25 November)

Event Time Altitude Azimuth Distance (km) Brightness Sun altitude
Rises 18:07:07 0° 233° (SW) 2,805 ? 46.8°
Reaches altitude 10° 18:09:23 10° 234° (SW) 1,910 ? 46.6°
Maximum altitude 18:13:46 83° 323° (NW) 601 ? 46.3°
Drops below altitude 10° 18:18:13 10° 51° (NE) 1,937 ? 45.9°
Sets 18:20:31 0° 52° (NE) 2,849 ? 45.7°
